DW0427 Weather Reports


Display with metric or nautical units.
time (UTC)temp
F
wind
direction
speed
MPH
gust
MPH
rain 1hr
in
rain 24hr
in
rain mn
in
humidity
%
barometer
mb
20190619064533 54 26 1.0 4.0 0.00 0.01 0.00 90 1009.4
20190619064334 54 25 1.0 4.0 0.00 0.01 0.00 90 1009.5
20190619064133 53 26 1.0 4.0 0.00 0.01 0.00 91 1009.6
20190619063933 53 27 2.0 4.0 0.00 0.01 0.00 91 1009.6
20190619063734 53 29 2.0 4.0 0.00 0.01 0.00 91 1009.6
20190619063533 53 30 2.0 3.0 0.00 0.01 0.00 91 1009.5
20190619063333 53 30 2.0 3.0 0.00 0.01 0.00 92 1009.5
20190619063134 53 29 2.0 3.0 0.00 0.01 0.00 92 1009.7
20190619062933 53 26 2.0 4.0 0.00 0.01 0.00 93 1009.6
20190619062733 52 20 2.0 4.0 0.00 0.01 0.00 93 1009.6
20190619062533 52 14 1.0 4.0 0.00 0.01 0.00 93 1009.7
20190619062333 52 8 1.0 4.0 0.00 0.01 0.00 93 1009.6
20190619062134 52 354 1.0 4.0 0.00 0.01 0.00 94 1009.6
20190619061933 51 346 1.0 3.0 0.00 0.01 0.00 94 1009.6
20190619061734 51 340 1.0 3.0 0.00 0.01 0.00 94 1009.6
20190619061533 51 326 1.0 3.0 0.00 0.01 0.00 94 1009.6
20190619061334 50 315 1.0 3.0 0.00 0.01 0.00 93 1009.6
20190619061133 50 313 1.0 4.0 0.00 0.01 0.00 93 1009.6
20190619060934 50 313 1.0 4.0 0.00 0.01 0.00 93 1009.6
20190619060733 49 313 1.0 4.0 0.00 0.01 0.00 93 1009.6
20190619060533 49 312 1.0 4.0 0.00 0.01 0.00 93 1009.6
20190619060334 49 313 1.0 4.0 0.00 0.01 0.00 93 1009.6
20190619060133 49 313 1.0 3.0 0.00 0.01 0.00 93 1009.6
20190619055934 49 313 1.0 3.0 0.00 0.01 0.00 93 1009.6
20190619055733 49 313 1.0 3.0 0.00 0.01 0.00 93 1009.6
20190619055534 50 313 1.0 4.0 0.00 0.01 0.00 93 1009.6
20190619055334 50 312 1.0 4.0 0.00 0.01 0.00 93 1009.6
20190619055133 50 308 1.0 4.0 0.00 0.01 0.00 93 1009.6
20190619054933 50 298 1.0 4.0 0.00 0.01 0.00 93 1009.6
20190619054734 50 293 1.0 4.0 0.00 0.01 0.00 93 1009.5
20190619054533 50 284 1.0 4.0 0.00 0.01 0.00 93 1009.6
20190619054334 50 267 1.0 4.0 0.00 0.01 0.00 93 1009.6
20190619054134 50 247 1.0 4.0 0.00 0.01 0.00 93 1009.6
20190619053933 50 241 1.0 2.0 0.00 0.01 0.00 94 1009.6
20190619053734 50 241 1.0 2.0 0.00 0.01 0.00 94 1009.6
20190619053534 50 241 1.0 2.0 0.00 0.01 0.00 94 1009.6
20190619053334 50 241 1.0 2.0 0.00 0.01 0.00 94 1009.6
20190619053134 49 241 1.0 2.0 0.00 0.01 0.00 94 1009.5
20190619052935 49 241 1.0 2.0 0.00 0.01 0.00 93 1009.5
20190619052734 49 241 1.0 2.0 0.00 0.01 0.00 94 1009.5
20190619052534 49 241 1.0 2.0 0.00 0.01 0.00 94 1009.6
20190619052334 49 241 1.0 2.0 0.00 0.01 0.00 93 1009.7
20190619052134 48 240 1.0 2.0 0.00 0.01 0.00 93 1009.6
20190619051934 48 240 1.0 2.0 0.00 0.01 0.00 93 1009.6
20190619051734 48 247 1.0 2.0 0.00 0.01 0.00 93 1009.6
20190619051534 48 241 1.0 2.0 0.00 0.01 0.00 93 1009.6
20190619051334 48 234 1.0 3.0 0.00 0.01 0.00 93 1009.6
20190619051134 48 211 1.0 5.0 0.00 0.01 0.00 93 1009.6
20190619050934 48 253 1.0 5.0 0.00 0.01 0.00 93 1009.7
20190619050734 48 272 1.0 5.0 0.00 0.01 0.00 93 1009.6
20190619050534 48 281 1.0 5.0 0.00 0.01 0.00 93 1009.5
20190619050334 48 285 1.0 5.0 0.00 0.01 0.00 93 1009.5
20190619050134 48 288 1.0 2.0 0.00 0.01 0.00 93 1009.5
20190619045934 48 284 1.0 2.0 0.00 0.01 0.00 93 1009.5
20190619045734 48 280 1.0 2.0 0.00 0.01 0.00 93 1009.5
20190619045534 48 279 1.0 3.0 0.00 0.01 0.00 93 1009.5
20190619045335 49 279 2.0 3.0 0.00 0.01 0.00 93 1009.4
20190619045134 49 279 2.0 4.0 0.00 0.01 0.00 93 1009.5
20190619044934 49 279 2.0 4.0 0.00 0.01 0.00 92 1009.5
20190619044734 49 279 2.0 4.0 0.00 0.01 0.00 92 1009.5
20190619044535 49 279 2.0 4.0 0.00 0.01 0.00 92 1009.5
20190619044334 49 280 2.0 4.0 0.00 0.01 0.00 92 1009.5
20190619044134 49 280 2.0 4.0 0.00 0.01 0.00 92 1009.5
20190619043934 49 277 2.0 4.0 0.00 0.01 0.00 92 1009.5
20190619043734 49 274 2.0 5.0 0.00 0.01 0.00 92 1009.5
20190619043534 49 269 2.0 5.0 0.00 0.01 0.00 92 1009.6
20190619043334 49 268 2.0 5.0 0.00 0.01 0.00 92 1009.5
20190619043135 49 268 2.0 5.0 0.00 0.01 0.00 92 1009.5
20190619042934 49 270 2.0 5.0 0.00 0.01 0.00 92 1009.6
20190619042734 49 273 2.0 5.0 0.00 0.01 0.00 92 1009.5
20190619042535 49 277 2.0 6.0 0.00 0.01 0.00 92 1009.5
20190619042334 49 277 3.0 6.0 0.00 0.01 0.00 92 1009.4
20190619042134 49 278 3.0 6.0 0.00 0.01 0.00 92 1009.4
20190619041935 49 275 3.0 6.0 0.00 0.01 0.00 92 1009.5
20190619041734 49 272 3.0 6.0 0.00 0.01 0.00 92 1009.5
20190619041534 49 270 3.0 5.0 0.00 0.01 0.00 92 1009.4
20190619041335 49 270 3.0 5.0 0.00 0.01 0.00 92 1009.5
20190619041135 49 271 3.0 5.0 0.00 0.01 0.00 92 1009.4
20190619040934 49 272 3.0 6.0 0.00 0.01 0.00 92 1009.4
20190619040734 49 272 3.0 6.0 0.00 0.01 0.00 92 1009.3
20190619040535 50 274 4.0 6.0 0.00 0.01 0.00 91 1009.2
20190619040335 50 276 4.0 6.0 0.00 0.01 0.00 91 1009.2
20190619040135 50 277 4.0 6.0 0.00 0.01 0.00 92 1009.2
20190619035935 50 280 3.0 6.0 0.00 0.01 0.00 91 1009.3
20190619035734 50 283 3.0 6.0 0.00 0.01 0.00 91 1009.3
20190619035535 50 284 3.0 6.0 0.00 0.01 0.00 91 1009.2
20190619035335 50 283 3.0 6.0 0.00 0.01 0.00 91 1009.2
20190619035134 50 282 2.0 6.0 0.00 0.01 0.00 91 1009.4
20190619034934 50 280 2.0 6.0 0.00 0.01 0.00 91 1009.3
20190619034735 50 278 2.0 5.0 0.00 0.01 0.00 91 1009.3
20190619034535 50 278 2.0 5.0 0.00 0.01 0.00 91 1009.3
20190619034334 50 277 2.0 5.0 0.00 0.01 0.00 91 1009.3
20190619034135 50 277 3.0 5.0 0.00 0.01 0.00 91 1009.3
20190619033935 50 277 3.0 4.0 0.00 0.01 0.00 91 1009.2
20190619033734 50 278 3.0 6.0 0.00 0.01 0.00 91 1009.2
20190619033535 50 282 3.0 6.0 0.00 0.01 0.00 91 1009.2
20190619033334 50 282 3.0 6.0 0.00 0.01 0.00 91 1009.1
20190619033135 50 281 3.0 6.0 0.00 0.01 0.00 91 1009.1
20190619032935 50 281 3.0 6.0 0.00 0.01 0.00 91 1009.2
20190619032734 50 281 3.0 5.0 0.00 0.01 0.00 90 1009.2
20190619032535 50 280 3.0 5.0 0.00 0.01 0.00 90 1009.2
20190619032335 51 281 2.0 5.0 0.00 0.01 0.00 90 1009.2
20190619032134 51 288 2.0 5.0 0.00 0.01 0.00 90 1009.2
20190619031935 51 295 2.0 5.0 0.00 0.01 0.00 90 1009.2
20190619031734 51 302 2.0 5.0 0.00 0.01 0.00 90 1009.3
20190619031534 51 314 2.0 5.0 0.00 0.01 0.00 90 1009.2
20190619031334 51 327 2.0 4.0 0.00 0.01 0.00 90 1009.2
20190619031135 51 328 2.0 4.0 0.00 0.01 0.00 90 1009.2
20190619030935 51 328 2.0 4.0 0.00 0.01 0.00 90 1009.3
20190619030734 51 329 2.0 4.0 0.00 0.01 0.00 90 1009.3
20190619030534 51 329 3.0 4.0 0.00 0.01 0.00 90 1009.2
20190619030335 51 328 3.0 5.0 0.00 0.01 0.00 90 1009.2
20190619030135 51 327 3.0 5.0 0.00 0.01 0.00 90 1009.2
20190619025934 51 321 3.0 5.0 0.00 0.01 0.00 90 1009.2
20190619025735 51 317 3.0 5.0 0.00 0.01 0.00 90 1009.3
20190619025535 51 311 3.0 5.0 0.00 0.01 0.00 90 1009.2
20190619025334 51 306 4.0 5.0 0.00 0.01 0.00 90 1009.2
20190619025134 51 298 4.0 5.0 0.00 0.01 0.00 90 1009.2
20190619024935 51 295 4.0 6.0 0.00 0.01 0.00 90 1009.2
20190619024735 51 291 4.0 6.0 0.00 0.01 0.00 90 1009.2
20190619024535 51 293 4.0 6.0 0.00 0.01 0.00 90 1009.3
20190619024335 51 294 4.0 6.0 0.00 0.01 0.00 90 1009.3
20190619024134 51 295 5.0 6.0 0.00 0.01 0.00 90 1009.3
20190619023934 51 296 5.0 6.0 0.00 0.01 0.00 90 1009.3
20190619023735 51 296 5.0 7.0 0.00 0.01 0.00 90 1009.3
20190619023535 51 297 5.0 7.0 0.00 0.01 0.00 90 1009.2
20190619023335 51 297 5.0 7.0 0.00 0.01 0.00 90 1009.3
20190619023134 51 298 4.0 7.0 0.00 0.01 0.00 90 1009.3
20190619022935 51 299 4.0 7.0 0.00 0.01 0.00 90 1009.3
20190619022735 51 302 4.0 7.0 0.00 0.01 0.00 90 1009.3
20190619022535 51 302 4.0 7.0 0.00 0.01 0.00 90 1009.3
20190619022335 51 303 4.0 7.0 0.00 0.01 0.00 90 1009.3
20190619022134 51 304 4.0 6.0 0.00 0.01 0.00 90 1009.3
20190619021935 51 303 4.0 6.0 0.00 0.01 0.00 89 1009.3
20190619021735 51 301 4.0 6.0 0.00 0.01 0.00 89 1009.3
20190619021535 51 301 4.0 6.0 0.00 0.01 0.00 89 1009.2
20190619021335 51 301 4.0 5.0 0.00 0.01 0.00 89 1009.2
20190619021145 51 301 4.0 6.0 0.00 0.01 0.00 89 1009.2
20190619020935 51 300 5.0 7.0 0.00 0.01 0.00 89 1009.2
20190619020735 51 297 5.0 8.0 0.00 0.01 0.00 89 1009.4
20190619020535 51 295 5.0 8.0 0.00 0.01 0.00 89 1009.4
20190619020335 51 294 5.0 8.0 0.00 0.01 0.00 88 1009.4
20190619020135 51 292 5.0 8.0 0.00 0.01 0.00 88 1009.4
20190619015935 51 292 5.0 8.0 0.00 0.01 0.00 88 1009.4
20190619015735 51 294 4.0 7.0 0.00 0.01 0.00 89 1009.2
20190619015535 51 297 4.0 7.0 0.00 0.01 0.00 89 1009.3
20190619015335 51 302 3.0 7.0 0.00 0.01 0.00 88 1009.3
20190619015136 51 308 3.0 6.0 0.00 0.01 0.00 88 1009.3
20190619014935 51 316 3.0 6.0 0.00 0.01 0.00 88 1009.3
20190619014735 51 319 4.0 5.0 0.00 0.01 0.00 88 1009.2
20190619014536 51 316 4.0 5.0 0.00 0.01 0.00 88 1009.2
20190619014335 51 312 4.0 6.0 0.00 0.01 0.00 88 1009.2
20190619014135 52 309 4.0 6.0 0.00 0.01 0.00 88 1009.2
20190619013936 52 305 4.0 6.0 0.00 0.01 0.00 87 1009.2
20190619013736 52 304 4.0 6.0 0.00 0.01 0.00 87 1009.3
20190619013536 52 306 4.0 6.0 0.00 0.01 0.00 87 1009.3
20190619013336 52 306 4.0 5.0 0.00 0.01 0.00 87 1009.3
20190619013135 52 308 4.0 5.0 0.00 0.01 0.00 87 1009.3
20190619012936 52 311 4.0 5.0 0.00 0.01 0.00 87 1009.3
20190619012735 52 311 4.0 6.0 0.00 0.01 0.00 87 1009.4
20190619012536 52 311 5.0 6.0 0.00 0.01 0.00 87 1009.4
20190619012336 52 312 5.0 7.0 0.00 0.01 0.00 87 1009.4
20190619012135 52 314 5.0 7.0 0.00 0.01 0.00 87 1009.3
20190619011936 52 313 5.0 7.0 0.00 0.01 0.00 87 1009.4
20190619011735 52 314 5.0 7.0 0.00 0.01 0.00 87 1009.4
20190619011536 52 316 5.0 7.0 0.00 0.01 0.00 87 1009.5
20190619011336 52 315 6.0 8.0 0.00 0.01 0.00 87 1009.4
20190619011136 52 314 6.0 8.0 0.00 0.01 0.00 87 1009.5
20190619010936 52 312 6.0 8.0 0.00 0.01 0.00 87 1009.4
20190619010736 52 310 6.0 8.0 0.00 0.01 0.00 87 1009.3
20190619010536 52 306 6.0 8.0 0.00 0.01 0.00 87 1009.3
20190619010336 52 304 5.0 8.0 0.00 0.01 0.00 87 1009.4
20190619010136 52 302 5.0 8.0 0.00 0.01 0.00 87 1009.4
20190619005936 52 303 4.0 8.0 0.00 0.01 0.00 87 1009.4
20190619005736 52 304 4.0 8.0 0.00 0.01 0.00 87 1009.4
20190619005536 52 307 3.0 7.0 0.00 0.01 0.00 87 1009.4
20190619005335 52 310 3.0 7.0 0.00 0.01 0.00 87 1009.4
20190619005136 52 314 3.0 5.0 0.00 0.01 0.00 87 1009.4
20190619004935 52 314 3.0 5.0 0.00 0.01 0.00 87 1009.4
20190619004736 52 314 2.0 5.0 0.00 0.01 0.00 87 1009.4
20190619004536 52 312 2.0 5.0 0.00 0.01 0.00 86 1009.5
20190619004336 52 308 2.0 5.0 0.00 0.01 0.00 86 1009.5
20190619004136 52 304 2.0 5.0 0.00 0.01 0.00 86 1009.5
20190619003936 52 300 2.0 5.0 0.00 0.01 0.00 86 1009.4
20190619003736 52 295 2.0 5.0 0.00 0.01 0.00 86 1009.5
20190619003536 52 292 3.0 4.0 0.00 0.01 0.00 85 1009.5
20190619003336 52 292 3.0 5.0 0.00 0.01 0.00 85 1009.6
20190619003136 52 291 3.0 5.0 0.00 0.01 0.00 85 1009.5
20190619002937 53 289 4.0 5.0 0.00 0.01 0.00 85 1009.5
20190619002736 53 289 4.0 6.0 0.00 0.01 0.00 84 1009.5
20190619002536 53 287 5.0 6.0 0.00 0.01 0.00 84 1009.5
20190619002336 53 286 5.0 6.0 0.00 0.01 0.00 84 1009.5
20190619002136 53 286 4.0 7.0 0.00 0.01 0.00 85 1009.6
20190619001936 53 285 4.0 7.0 0.00 0.01 0.00 85 1009.6
20190619001736 53 285 3.0 7.0 0.00 0.01 0.00 84 1009.6
20190619001536 53 287 3.0 7.0 0.00 0.01 0.00 84 1009.6
20190619001336 53 290 2.0 7.0 0.00 0.01 0.00 84 1009.6
20190619001136 53 293 2.0 6.0 0.00 0.01 0.00 84 1009.7
20190619000936 53 299 2.0 5.0 0.00 0.01 0.00 85 1009.7
20190619000737 53 303 2.0 5.0 0.00 0.01 0.00 84 1009.6
20190619000536 53 304 3.0 5.0 0.00 0.01 0.00 84 1009.7
20190619000337 53 303 3.0 5.0 0.00 0.01 0.00 84 1009.7
20190619000136 53 303 3.0 5.0 0.00 0.01 0.00 84 1009.6
20190618235937 53 303 2.0 5.0 0.00 0.01 0.00 84 1009.7
20190618235736 53 303 2.0 5.0 0.01 0.01 0.00 83 1009.8
20190618235537 54 303 2.0 4.0 0.01 0.01 0.00 83 1009.7
20190618235336 54 303 2.0 4.0 0.01 0.01 0.00 83 1009.7
20190618235136 54 303 2.0 4.0 0.01 0.01 0.00 83 1009.8
20190618234937 54 303 2.0 4.0 0.01 0.01 0.00 82 1009.8
20190618234736 54 303 2.0 4.0 0.01 0.01 0.00 83 1009.8
20190618234537 54 304 3.0 4.0 0.01 0.01 0.00 82 1009.7
20190618234336 54 305 3.0 4.0 0.01 0.01 0.00 82 1009.8
20190618234137 54 307 3.0 4.0 0.01 0.01 0.00 82 1009.8
20190618233937 54 309 3.0 4.0 0.01 0.01 0.00 82 1009.8
20190618233736 54 315 3.0 4.0 0.01 0.01 0.00 82 1009.8
20190618233536 54 317 3.0 5.0 0.01 0.01 0.00 82 1009.9
20190618233337 54 320 4.0 5.0 0.01 0.01 0.00 82 1009.9
20190618233137 54 323 4.0 5.0 0.01 0.01 0.00 82 1009.9
20190618232936 54 325 5.0 7.0 0.01 0.01 0.00 82 1009.8
20190618232737 54 322 5.0 7.0 0.01 0.01 0.00 82 1009.8
20190618232537 54 323 6.0 7.0 0.01 0.01 0.00 82 1009.8
20190618232336 54 322 6.0 7.0 0.01 0.01 0.00 82 1009.9
20190618232137 54 319 6.0 7.0 0.01 0.01 0.00 82 1009.9
20190618231937 54 316 6.0 7.0 0.01 0.01 0.00 82 1009.9
20190618231736 54 314 6.0 8.0 0.01 0.01 0.00 81 1009.9
20190618231537 54 311 6.0 8.0 0.01 0.01 0.00 81 1009.9
20190618231337 54 309 6.0 8.0 0.01 0.01 0.00 81 1010.0
20190618231137 54 306 6.0 8.0 0.01 0.01 0.00 80 1010.0
20190618230937 55 302 6.0 8.0 0.01 0.01 0.00 80 1009.9
20190618230736 55 297 5.0 8.0 0.01 0.01 0.00 80 1010.0
20190618230538 55 293 5.0 8.0 0.01 0.01 0.00 80 1010.0
20190618230337 55 290 5.0 8.0 0.01 0.01 0.00 80 1010.0
20190618230138 55 288 5.0 8.0 0.01 0.01 0.00 80 1010.1
20190618225937 55 289 5.0 8.0 0.01 0.01 0.00 80 1010.1
20190618225737 55 291 4.0 7.0 0.00 0.00 0.00 80 1010.1
20190618225537 55 294 4.0 7.0 0.00 0.00 0.00 79 1010.1
20190618225337 55 296 3.0 7.0 0.00 0.00 0.00 79 1010.1
20190618225137 55 298 3.0 7.0 0.00 0.00 0.00 79 1010.1
20190618224937 56 296 3.0 7.0 0.00 0.00 0.00 79 1010.2
20190618224737 56 291 3.0 7.0 0.00 0.00 0.00 79 1010.1
20190618224537 56 283 2.0 6.0 0.00 0.00 0.00 79 1010.2
20190618224337 56 275 2.0 6.0 0.00 0.00 0.00 79 1010.2
20190618224137 56 267 2.0 6.0 0.00 0.00 0.00 80 1010.2
20190618223937 56 269 2.0 6.0 0.00 0.00 0.00 80 1010.2
20190618223738 56 271 2.0 6.0 0.00 0.00 0.00 80 1010.2
20190618223537 56 273 2.0 5.0 0.00 0.00 0.00 80 1010.2
20190618223337 56 279 3.0 5.0 0.00 0.00 0.00 80 1010.1
20190618223137 56 289 3.0 4.0 0.00 0.00 0.00 80 1010.1
20190618222937 56 293 3.0 4.0 0.00 0.00 0.00 80 1010.2
20190618222737 56 296 3.0 5.0 0.00 0.00 0.00 80 1010.2
20190618222537 56 296 3.0 5.0 0.00 0.00 0.00 80 1010.2
20190618222337 56 294 2.0 5.0 0.00 0.00 0.00 80 1010.2
20190618222137 56 287 2.0 5.0 0.00 0.00 0.00 81 1010.2
20190618221938 56 280 2.0 5.0 0.00 0.00 0.00 81 1010.3
20190618221737 56 271 2.0 5.0 0.00 0.00 0.00 81 1010.2
20190618221537 56 263 2.0 5.0 0.00 0.00 0.00 80 1010.2
20190618221337 56 258 3.0 5.0 0.00 0.00 0.00 80 1010.3
20190618221138 56 256 3.0 5.0 0.00 0.00 0.00 80 1010.3
20190618220937 56 256 3.0 5.0 0.00 0.00 0.00 80 1010.2
20190618220738 56 252 4.0 7.0 0.00 0.00 0.00 80 1010.2
20190618220537 56 252 4.0 7.0 0.00 0.00 0.00 80 1010.3
20190618220337 56 253 4.0 7.0 0.00 0.00 0.00 79 1010.3
20190618220138 57 255 4.0 7.0 0.00 0.00 0.00 79 1010.3
20190618215937 57 255 4.0 7.0 0.00 0.00 0.00 79 1010.3
20190618215738 57 263 4.0 7.0 0.00 0.00 0.00 78 1010.3
20190618215538 57 269 5.0 7.0 0.00 0.00 0.00 78 1010.2
20190618215337 57 274 5.0 7.0 0.00 0.00 0.00 77 1010.2
20190618215138 57 280 5.0 7.0 0.00 0.00 0.00 76 1010.1
20190618214937 58 283 5.0 8.0 0.00 0.00 0.00 76 1010.1
20190618214737 58 283 4.0 8.0 0.00 0.00 0.00 76 1010.1
20190618214538 58 285 4.0 8.0 0.00 0.00 0.00 76 1010.2
20190618214337 58 289 4.0 8.0 0.00 0.00 0.00 76 1010.1
20190618214138 58 289 4.0 8.0 0.00 0.00 0.00 76 1010.2
20190618213937 58 293 4.0 6.0 0.00 0.00 0.00 75 1010.1
20190618213738 58 298 4.0 6.0 0.00 0.00 0.00 74 1010.1
20190618213537 58 306 4.0 7.0 0.00 0.00 0.00 74 1010.1
20190618213338 58 315 4.0 8.0 0.00 0.00 0.00 74 1010.1
20190618213138 58 321 4.0 10.0 0.00 0.00 0.00 73 1010.0
20190618212938 58 325 4.0 10.0 0.00 0.00 0.00 72 1010.0
20190618212738 58 328 3.0 10.0 0.00 0.00 0.00 71 1010.1
20190618212537 59 328 3.0 10.0 0.00 0.00 0.00 72 1010.1
20190618212338 59 321 3.0 10.0 0.00 0.00 0.00 73 1010.1
20190618212137 59 319 3.0 6.0 0.00 0.00 0.00 73 1010.0
20190618211937 59 312 3.0 5.0 0.00 0.00 0.00 73 1010.1
20190618211737 59 304 3.0 5.0 0.00 0.00 0.00 72 1010.0
20190618211538 59 302 4.0 5.0 0.00 0.00 0.00 72 1010.0
20190618211338 59 292 4.0 5.0 0.00 0.00 0.00 72 1010.0
20190618211138 59 284 4.0 6.0 0.00 0.00 0.00 72 1010.1
20190618210937 59 272 4.0 7.0 0.00 0.00 0.00 72 1010.0
20190618210737 59 265 4.0 7.0 0.00 0.00 0.00 72 1010.0
20190618210538 59 259 4.0 8.0 0.00 0.00 0.00 72 1010.0
20190618210338 59 259 4.0 8.0 0.00 0.00 0.00 72 1009.9
20190618210138 59 258 4.0 8.0 0.00 0.00 0.00 72 1009.9
20190618205937 59 258 5.0 8.0 0.00 0.00 0.00 72 1009.9
20190618205737 59 258 5.0 8.0 0.00 0.00 0.00 72 1009.9
20190618205537 59 256 5.0 7.0 0.00 0.00 0.00 71 1009.9
20190618205337 59 254 5.0 7.0 0.00 0.00 0.00 71 1009.8
20190618205137 59 255 5.0 7.0 0.00 0.00 0.00 71 1009.9
20190618204937 59 257 5.0 7.0 0.00 0.00 0.00 71 1009.8
20190618204737 59 261 5.0 7.0 0.00 0.00 0.00 71 1009.8
20190618204538 59 264 4.0 7.0 0.00 0.00 0.00 70 1009.8
20190618204337 59 264 4.0 8.0 0.00 0.00 0.00 71 1009.8
20190618204138 59 263 4.0 8.0 0.00 0.00 0.00 70 1009.8
20190618203937 59 261 4.0 8.0 0.00 0.00 0.00 70 1009.8
20190618203737 59 255 4.0 8.0 0.00 0.00 0.00 70 1009.8
20190618203537 59 254 4.0 8.0 0.00 0.00 0.00 70 1009.7
20190618203337 59 253 4.0 7.0 0.00 0.00 0.00 69 1009.8
20190618203137 60 252 4.0 7.0 0.00 0.00 0.00 69 1009.8
20190618202937 60 252 4.0 7.0 0.00 0.00 0.00 69 1009.8
20190618202738 60 251 4.0 7.0 0.00 0.00 0.00 68 1009.8
20190618202538 60 246 4.0 7.0 0.00 0.00 0.00 68 1009.8
20190618202338 60 245 4.0 7.0 0.00 0.00 0.00 68 1009.8
20190618202138 60 244 4.0 7.0 0.00 0.00 0.00 68 1009.8
20190618201938 60 244 4.0 7.0 0.00 0.00 0.00 68 1009.8
20190618201738 60 244 3.0 7.0 0.00 0.00 0.00 67 1009.8
20190618201538 60 246 3.0 7.0 0.00 0.00 0.00 67 1009.7
20190618201338 60 244 3.0 7.0 0.00 0.00 0.00 67 1009.7
20190618201138 60 244 3.0 7.0 0.00 0.00 0.00 66 1009.6
20190618200938 60 243 3.0 7.0 0.00 0.00 0.00 66 1009.6
20190618200738 60 242 3.0 6.0 0.00 0.00 0.00 66 1009.7
20190618200537 60 240 3.0 6.0 0.00 0.00 0.00 66 1009.6
20190618200338 60 242 3.0 6.0 0.00 0.00 0.00 66 1009.7
20190618200138 60 243 3.0 6.0 0.00 0.00 0.00 66 1009.8
20190618195938 60 243 3.0 6.0 0.00 0.00 0.00 65 1009.7
20190618195737 60 242 3.0 6.0 0.00 0.00 0.00 65 1009.8
20190618195538 61 242 3.0 6.0 0.00 0.00 0.00 65 1009.7
20190618195338 61 241 3.0 6.0 0.00 0.00 0.00 65 1009.6
20190618195138 61 241 3.0 6.0 0.00 0.00 0.00 64 1009.6
20190618194938 61 239 4.0 5.0 0.00 0.00 0.00 65 1009.5
20190618194738 61 238 4.0 6.0 0.00 0.00 0.00 64 1009.6
20190618194538 61 236 4.0 7.0 0.00 0.00 0.00 65 1009.6
20190618194338 61 232 5.0 7.0 0.00 0.00 0.00 64 1009.5
20190618194138 61 229 5.0 7.0 0.00 0.00 0.00 64 1009.6
20190618193938 61 229 5.0 7.0 0.00 0.00 0.00 64 1009.6
20190618193738 61 228 4.0 7.0 0.00 0.00 0.00 64 1009.6
20190618193538 61 229 4.0 7.0 0.00 0.00 0.00 63 1009.6
20190618193338 61 231 4.0 7.0 0.00 0.00 0.00 64 1009.7
20190618193138 61 229 4.0 7.0 0.00 0.00 0.00 63 1009.7
20190618192938 61 227 4.0 7.0 0.00 0.00 0.00 63 1009.7
20190618192738 61 229 4.0 7.0 0.00 0.00 0.00 63 1009.7
20190618192538 61 228 4.0 7.0 0.00 0.00 0.00 63 1009.6
20190618192338 61 226 5.0 7.0 0.00 0.00 0.00 63 1009.7
20190618192139 61 227 5.0 7.0 0.00 0.00 0.00 63 1009.8
20190618191939 61 228 5.0 7.0 0.00 0.00 0.00 63 1009.8
20190618191739 62 225 6.0 7.0 0.00 0.00 0.00 64 1009.7
20190618191539 62 224 6.0 9.0 0.00 0.00 0.00 62 1009.7
20190618191338 62 224 6.0 9.0 0.00 0.00 0.00 62 1009.7
20190618191138 62 225 6.0 9.0 0.00 0.00 0.00 62 1009.6
20190618190939 62 226 6.0 9.0 0.00 0.00 0.00 61 1009.6
20190618190739 62 228 6.0 9.0 0.00 0.00 0.00 61 1009.7
20190618190539 62 231 6.0 9.0 0.00 0.00 0.00 61 1009.7
20190618190339 62 232 6.0 9.0 0.00 0.00 0.00 60 1009.6
20190618190139 62 235 6.0 9.0 0.00 0.00 0.00 59 1009.6
20190618185939 63 237 6.0 9.0 0.00 0.00 0.00 59 1009.7
20190618185739 63 237 6.0 9.0 0.00 0.00 0.00 59 1009.7
20190618185539 63 237 6.0 9.0 0.00 0.00 0.00 59 1009.6
20190618185339 63 238 5.0 9.0 0.00 0.00 0.00 58 1009.7
20190618185139 63 238 5.0 9.0 0.00 0.00 0.00 57 1009.6
20190618184939 63 231 5.0 9.0 0.00 0.00 0.00 58 1009.7
20190618184739 63 237 4.0 9.0 0.00 0.00 0.00 57 1009.7
20190618184539 64 237 4.0 9.0 0.00 0.00 0.00 57 1009.7
20190618184339 64 235 3.0 9.0 0.00 0.00 0.00 58 1009.7
20190618184139 64 234 3.0 9.0 0.00 0.00 0.00 57 1009.7
20190618183939 64 246 3.0 7.0 0.00 0.00 0.00 57 1009.6
20190618183739 64 241 3.0 6.0 0.00 0.00 0.00 57 1009.6
20190618183539 64 241 3.0 6.0 0.00 0.00 0.00 56 1009.7
20190618183339 64 252 3.0 6.0 0.00 0.00 0.00 57 1009.7
20190618183139 64 259 3.0 7.0 0.00 0.00 0.00 57 1009.7
20190618182939 63 258 4.0 7.0 0.00 0.00 0.00 57 1009.8
20190618182739 63 256 4.0 7.0 0.00 0.00 0.00 57 1009.8
20190618182539 63 256 4.0 7.0 0.00 0.00 0.00 58 1009.7
20190618182339 63 252 4.0 7.0 0.00 0.00 0.00 57 1009.7
20190618182139 63 254 5.0 7.0 0.00 0.00 0.00 56 1009.7
20190618181939 63 256 5.0 7.0 0.00 0.00 0.00 56 1009.7
20190618181739 63 260 5.0 8.0 0.00 0.00 0.00 56 1009.7
20190618181539 63 260 4.0 8.0 0.00 0.00 0.00 55 1009.7
20190618181339 63 256 4.0 8.0 0.00 0.00 0.00 56 1009.6
20190618181139 63 257 3.0 8.0 0.00 0.00 0.00 55 1009.7
20190618180939 63 255 3.0 8.0 0.00 0.00 0.00 56 1009.7
20190618180739 63 251 3.0 8.0 0.00 0.00 0.00 55 1009.7
20190618180539 63 246 3.0 8.0 0.00 0.00 0.00 55 1009.8
20190618180339 63 244 3.0 6.0 0.00 0.00 0.00 56 1009.8
20190618180139 64 239 3.0 5.0 0.00 0.00 0.00 55 1009.8
20190618175939 64 237 4.0 5.0 0.00 0.00 0.00 56 1009.8
20190618175739 64 242 4.0 5.0 0.00 0.00 0.00 54 1009.9
20190618175539 64 254 4.0 6.0 0.00 0.00 0.00 54 1009.8
20190618175339 64 265 4.0 8.0 0.00 0.00 0.00 54 1009.8
20190618175139 64 277 4.0 9.0 0.00 0.00 0.00 54 1009.7
20190618174939 64 284 4.0 9.0 0.00 0.00 0.00 54 1009.8
20190618174739 64 288 4.0 9.0 0.00 0.00 0.00 55 1009.8
20190618174539 64 292 4.0 9.0 0.00 0.00 0.00 54 1009.9
20190618174339 64 294 4.0 9.0 0.00 0.00 0.00 54 1009.9
20190618174139 64 294 4.0 7.0 0.00 0.00 0.00 54 1010.0
20190618173939 64 282 3.0 8.0 0.00 0.00 0.00 54 1010.0
20190618173739 64 280 3.0 8.0 0.00 0.00 0.00 53 1010.0
20190618173539 64 276 4.0 8.0 0.00 0.00 0.00 54 1009.9
20190618173339 64 273 4.0 8.0 0.00 0.00 0.00 53 1010.0
20190618173139 64 280 4.0 8.0 0.00 0.00 0.00 51 1009.9
20190618172939 65 292 4.0 8.0 0.00 0.00 0.00 52 1009.9
20190618172739 65 279 4.0 8.0 0.00 0.00 0.00 52 1009.9
20190618172539 65 283 5.0 8.0 0.00 0.00 0.00 52 1010.0
20190618172339 65 278 5.0 8.0 0.00 0.00 0.00 51 1010.0
20190618172139 66 267 5.0 8.0 0.00 0.00 0.00 50 1009.9
20190618171939 66 265 5.0 8.0 0.00 0.00 0.00 50 1009.9
20190618171739 66 279 5.0 8.0 0.00 0.00 0.00 50 1009.9
20190618171539 66 277 5.0 8.0 0.00 0.00 0.00 50 1009.9
20190618171339 66 276 4.0 8.0 0.00 0.00 0.00 50 1009.9
20190618171139 66 273 4.0 8.0 0.00 0.00 0.00 50 1009.8
20190618170940 65 258 4.0 8.0 0.00 0.00 0.00 51 1009.9
20190618170740 65 238 4.0 8.0 0.00 0.00 0.00 52 1009.8
20190618170540 65 230 4.0 7.0 0.00 0.00 0.00 54 1009.9
20190618170340 65 232 4.0 7.0 0.00 0.00 0.00 54 1009.9
20190618170140 65 237 4.0 7.0 0.00 0.00 0.00 59 1010.1
20190618165940 64 253 4.0 7.0 0.00 0.00 0.00 55 1010.0
20190618165740 64 250 4.0 7.0 0.00 0.00 0.00 54 1010.0
20190618165540 64 249 4.0 6.0 0.00 0.00 0.00 54 1009.9
20190618165339 64 251 4.0 6.0 0.00 0.00 0.00 54 1010.0
20190618165139 64 252 4.0 8.0 0.00 0.00 0.00 54 1010.0
20190618164939 64 246 5.0 8.0 0.00 0.00 0.00 55 1009.9
20190618164739 64 246 5.0 8.0 0.00 0.00 0.00 54 1009.9
20190618164539 64 242 5.0 9.0 0.00 0.00 0.00 53 1010.0
20190618164340 63 233 5.0 9.0 0.00 0.00 0.00 54 1010.0
20190618164140 63 229 5.0 9.0 0.00 0.00 0.00 55 1010.1
20190618163940 63 230 5.0 9.0 0.00 0.00 0.00 53 1010.1
20190618163740 63 226 4.0 9.0 0.00 0.00 0.00 54 1010.1
20190618163540 63 228 5.0 7.0 0.00 0.00 0.00 56 1010.3
20190618163340 63 236 5.0 7.0 0.00 0.00 0.00 55 1010.1
20190618163140 63 237 5.0 7.0 0.00 0.00 0.00 56 1010.3
20190618162940 63 241 5.0 7.0 0.00 0.00 0.00 55 1010.3
20190618162739 63 247 5.0 8.0 0.00 0.00 0.00 54 1010.1
20190618162539 63 246 6.0 8.0 0.00 0.00 0.00 53 1010.1
20190618162339 63 245 6.0 8.0 0.00 0.00 0.00 54 1010.0
20190618162140 63 245 6.0 8.0 0.00 0.00 0.00 53 1010.1
20190618161940 63 246 5.0 9.0 0.00 0.00 0.00 53 1010.3
20190618161740 63 244 5.0 9.0 0.00 0.00 0.00 53 1010.2
20190618161540 63 246 5.0 9.0 0.00 0.00 0.00 53 1010.1
20190618161340 63 248 5.0 9.0 0.00 0.00 0.00 53 1010.2
20190618161140 63 249 5.0 9.0 0.00 0.00 0.00 52 1010.3
20190618160940 63 245 5.0 8.0 0.00 0.00 0.00 53 1010.3
20190618160741 63 246 4.0 8.0 0.00 0.00 0.00 52 1010.4
20190618160540 63 243 5.0 9.0 0.00 0.00 0.00 53 1010.4
20190618160340 63 245 5.0 9.0 0.00 0.00 0.00 54 1010.3
20190618160141 63 246 5.0 9.0 0.00 0.00 0.00 53 1010.4
20190618155940 63 248 5.0 9.0 0.00 0.00 0.00 53 1010.4
20190618155740 63 248 5.0 9.0 0.00 0.00 0.00 54 1010.3
20190618155540 63 252 5.0 9.0 0.00 0.00 0.00 52 1010.4
20190618155341 64 249 5.0 9.0 0.00 0.00 0.00 54 1010.4
20190618155140 63 250 5.0 8.0 0.00 0.00 0.00 52 1010.4
20190618154941 63 248 5.0 8.0 0.00 0.00 0.00 52 1010.4
20190618154740 64 253 4.0 8.0 0.00 0.00 0.00 51 1010.4
20190618154540 64 255 4.0 8.0 0.00 0.00 0.00 51 1010.4
20190618154340 64 260 4.0 8.0 0.00 0.00 0.00 51 1010.4
20190618154141 64 261 4.0 8.0 0.00 0.00 0.00 52 1010.4
20190618153940 64 265 5.0 8.0 0.00 0.00 0.00 50 1010.3
20190618153740 64 257 5.0 8.0 0.00 0.00 0.00 51 1010.4
20190618153540 64 254 5.0 9.0 0.00 0.00 0.00 52 1010.4
20190618153341 64 255 5.0 9.0 0.00 0.00 0.00 50 1010.3
20190618153140 64 250 5.0 9.0 0.00 0.00 0.00 51 1010.4
20190618152941 64 246 5.0 9.0 0.00 0.00 0.00 50 1010.4
20190618152741 64 248 6.0 9.0 0.00 0.00 0.00 49 1010.5
20190618152540 64 247 6.0 8.0 0.00 0.00 0.00 51 1010.4
20190618152341 64 247 6.0 11.0 0.00 0.00 0.00 52 1010.4
20190618152140 64 252 6.0 11.0 0.00 0.00 0.00 51 1010.4
20190618151941 64 255 6.0 11.0 0.00 0.00 0.00 50 1010.4
20190618151741 64 258 6.0 11.0 0.00 0.00 0.00 52 1010.5
20190618151540 64 258 6.0 11.0 0.00 0.00 0.00 52 1010.5
20190618151341 64 255 6.0 9.0 0.00 0.00 0.00 52 1010.5
20190618151141 64 257 6.0 9.0 0.00 0.00 0.00 52 1010.4
20190618150940 64 268 6.0 9.0 0.00 0.00 0.00 50 1010.4
20190618150740 64 278 6.0 9.0 0.00 0.00 0.00 51 1010.4
20190618150541 64 286 5.0 9.0 0.00 0.00 0.00 51 1010.4
20190618150340 64 292 5.0 9.0 0.00 0.00 0.00 51 1010.5
20190618150140 64 295 5.0 9.0 0.00 0.00 0.00 52 1010.5
20190618145941 64 292 6.0 9.0 0.00 0.00 0.00 53 1010.5
20190618145741 64 285 6.0 9.0 0.00 0.00 0.00 51 1010.5
20190618145541 64 288 6.0 9.0 0.00 0.00 0.00 50 1010.5
20190618145340 64 286 6.0 10.0 0.00 0.00 0.00 51 1010.5
20190618145141 64 285 6.0 10.0 0.00 0.00 0.00 50 1010.6
20190618144941 64 284 6.0 10.0 0.00 0.00 0.00 51 1010.6
20190618144741 64 287 5.0 11.0 0.00 0.00 0.00 52 1010.7
20190618144541 64 281 4.0 11.0 0.00 0.00 0.00 50 1010.7
20190618144341 65 276 4.0 11.0 0.00 0.00 0.00 49 1010.6
20190618144141 65 278 4.0 11.0 0.00 0.00 0.00 50 1010.7
20190618143941 65 281 4.0 11.0 0.00 0.00 0.00 52 1010.7
20190618143740 65 278 5.0 7.0 0.00 0.00 0.00 51 1010.7
20190618143541 65 285 5.0 7.0 0.00 0.00 0.00 52 1010.6
20190618143341 65 289 5.0 7.0 0.00 0.00 0.00 52 1010.7
20190618143141 65 291 5.0 8.0 0.00 0.00 0.00 50 1010.6
20190618142941 65 289 6.0 9.0 0.00 0.00 0.00 51 1010.6
20190618142742 65 290 6.0 9.0 0.00 0.00 0.00 50 1010.6
20190618142541 65 281 6.0 9.0 0.00 0.00 0.00 49 1010.6
20190618142341 65 281 6.0 10.0 0.00 0.00 0.00 50 1010.6
20190618142141 65 281 5.0 10.0 0.00 0.00 0.00 49 1010.6
20190618141941 65 281 5.0 10.0 0.00 0.00 0.00 50 1010.5
20190618141741 65 284 4.0 10.0 0.00 0.00 0.00 50 1010.6
20190618141541 65 295 4.0 10.0 0.00 0.00 0.00 51 1010.4
20190618141341 65 310 4.0 10.0 0.00 0.00 0.00 52 1010.5
20190618141141 65 319 4.0 8.0 0.00 0.00 0.00 51 1010.5
20190618140941 65 331 4.0 8.0 0.00 0.00 0.00 52 1010.6
20190618140741 66 332 4.0 6.0 0.00 0.00 0.00 55 1010.7
20190618140541 65 327 4.0 7.0 0.00 0.00 0.00 52 1010.7
20190618140341 65 313 3.0 7.0 0.00 0.00 0.00 54 1010.8
20190618140141 65 312 3.0 7.0 0.00 0.00 0.00 54 1010.7
20190618135941 65 310 4.0 7.0 0.00 0.00 0.00 55 1010.7
20190618135742 64 309 4.0 7.0 0.00 0.00 0.00 55 1010.6
20190618135541 64 314 4.0 6.0 0.00 0.00 0.00 55 1010.7
20190618135341 64 322 5.0 11.0 0.00 0.00 0.00 56 1010.7
20190618135142 64 328 5.0 11.0 0.00 0.00 0.00 54 1010.7
20190618134941 64 327 4.0 11.0 0.00 0.00 0.00 52 1010.6
20190618134741 64 323 4.0 11.0 0.00 0.00 0.00 53 1010.7
20190618134542 64 326 3.0 11.0 0.00 0.00 0.00 53 1010.6
20190618134341 64 325 3.0 9.0 0.00 0.00 0.00 53 1010.7
20190618134141 64 308 3.0 7.0 0.00 0.00 0.00 54 1010.8
20190618133941 65 296 3.0 7.0 0.00 0.00 0.00 54 1010.8
20190618133742 65 286 3.0 6.0 0.00 0.00 0.00 53 1010.7
20190618133541 65 260 3.0 6.0 0.00 0.00 0.00 51 1010.7
20190618133341 65 212 3.0 6.0 0.00 0.00 0.00 51 1010.7
20190618133141 65 178 3.0 6.0 0.00 0.00 0.00 53 1010.8
20190618132942 65 170 4.0 6.0 0.00 0.00 0.00 52 1010.8
20190618132741 65 171 4.0 6.0 0.00 0.00 0.00 56 1010.9
20190618132541 65 174 4.0 7.0 0.00 0.00 0.00 58 1010.9
20190618132341 65 178 4.0 7.0 0.00 0.00 0.00 61 1010.8
20190618132141 65 183 4.0 7.0 0.00 0.00 0.00 55 1010.9
20190618131941 64 187 3.0 7.0 0.00 0.00 0.00 55 1010.8
20190618131742 64 188 3.0 7.0 0.00 0.00 0.00 54 1010.8
20190618131542 64 193 3.0 7.0 0.00 0.00 0.00 59 1010.9
20190618131341 63 203 3.0 7.0 0.00 0.00 0.00 58 1010.9
20190618131142 64 223 3.0 7.0 0.00 0.00 0.00 58 1011.0
20190618130942 63 216 3.0 8.0 0.00 0.00 0.00 55 1011.0
20190618130742 63 208 4.0 11.0 0.00 0.00 0.00 55 1011.0
20190618130542 63 203 4.0 11.0 0.00 0.00 0.00 53 1010.9
20190618130342 64 216 4.0 11.0 0.00 0.00 0.00 58 1011.0
20190618130141 64 224 4.0 11.0 0.00 0.00 0.00 56 1011.0
20190618125941 64 229 4.0 11.0 0.00 0.00 0.00 55 1010.9
20190618125741 64 245 4.0 8.0 0.00 0.00 0.00 53 1011.0
20190618125542 65 250 4.0 8.0 0.00 0.00 0.00 52 1010.9
20190618125342 65 251 5.0 9.0 0.00 0.00 0.00 53 1010.9
20190618125142 65 261 5.0 11.0 0.00 0.00 0.00 57 1010.9
20190618124942 64 281 5.0 11.0 0.00 0.00 0.00 55 1011.0
20190618124741 64 285 5.0 11.0 0.00 0.00 0.00 55 1011.0
20190618124542 64 286 5.0 11.0 0.00 0.00 0.00 55 1011.0
20190618124342 64 293 5.0 11.0 0.00 0.00 0.00 55 1011.0
20190618124142 64 295 5.0 10.0 0.00 0.00 0.00 54 1011.0
20190618123942 64 293 5.0 10.0 0.00 0.00 0.00 53 1011.1
20190618123742 65 293 4.0 10.0 0.00 0.00 0.00 55 1011.1
20190618123542 64 288 4.0 10.0 0.00 0.00 0.00 55 1011.1
20190618123342 64 278 4.0 10.0 0.00 0.00 0.00 53 1011.1
20190618123141 64 276 4.0 10.0 0.00 0.00 0.00 55 1011.1
20190618122942 64 274 4.0 10.0 0.00 0.00 0.00 55 1011.2
20190618122741 64 266 4.0 8.0 0.00 0.00 0.00 55 1011.1
20190618122542 63 251 4.0 10.0 0.00 0.00 0.00 58 1011.2
20190618122342 63 257 4.0 10.0 0.00 0.00 0.00 55 1011.2
20190618122142 62 248 5.0 10.0 0.00 0.00 0.00 58 1011.3
20190618121942 62 231 5.0 10.0 0.00 0.00 0.00 59 1011.3
20190618121742 62 222 5.0 10.0 0.00 0.00 0.00 57 1011.2
20190618121542 62 212 5.0 9.0 0.00 0.00 0.00 58 1011.3
20190618121342 62 195 5.0 9.0 0.00 0.00 0.00 60 1011.3
20190618121142 62 203 5.0 10.0 0.00 0.00 0.00 56 1011.3
20190618120942 62 207 4.0 10.0 0.00 0.00 0.00 56 1011.3
20190618120742 63 211 4.0 10.0 0.00 0.00 0.00 55 1011.2
20190618120542 63 217 4.0 10.0 0.00 0.00 0.00 55 1011.1
20190618120342 64 229 4.0 10.0 0.00 0.00 0.00 56 1011.2
20190618120142 64 226 4.0 8.0 0.00 0.00 0.00 57 1011.2
20190618115942 64 236 4.0 9.0 0.00 0.00 0.00 56 1011.1
20190618115742 64 243 4.0 9.0 0.00 0.00 0.00 57 1011.2
20190618115542 64 254 4.0 9.0 0.00 0.00 0.00 56 1011.2
20190618115342 64 255 3.0 9.0 0.00 0.00 0.00 55 1011.1
20190618115142 65 265 3.0 9.0 0.00 0.00 0.00 57 1011.3
20190618114942 64 266 3.0 9.0 0.00 0.00 0.00 56 1011.3
20190618114742 64 259 3.0 9.0 0.00 0.00 0.00 56 1011.3
20190618114542 64 254 2.0 9.0 0.00 0.00 0.00 56 1011.3
20190618114342 64 257 2.0 9.0 0.00 0.00 0.00 58 1011.4
20190618114142 64 260 3.0 9.0 0.00 0.00 0.00 59 1011.4
20190618113943 64 262 3.0 8.0 0.00 0.00 0.00 60 1011.4
20190618113742 63 290 4.0 6.0 0.00 0.00 0.00 61 1011.4
20190618113542 62 312 4.0 7.0 0.00 0.00 0.00 62 1011.4
20190618113342 62 321 5.0 7.0 0.00 0.00 0.00 61 1011.3
20190618113142 62 318 6.0 9.0 0.00 0.00 0.00 59 1011.4
20190618112942 62 320 6.0 9.0 0.00 0.00 0.00 60 1011.3
20190618112742 62 323 7.0 11.0 0.00 0.00 0.00 61 1011.3
20190618112542 62 315 7.0 11.0 0.00 0.00 0.00 62 1011.4
20190618112342 62 307 8.0 11.0 0.00 0.00 0.00 64 1011.5
20190618112142 62 305 8.0 11.0 0.00 0.00 0.00 63 1011.4
20190618111942 62 304 8.0 12.0 0.00 0.00 0.00 63 1011.4
20190618111743 61 304 8.0 14.0 0.00 0.00 0.00 63 1011.5
20190618111543 61 299 7.0 16.0 0.00 0.00 0.00 64 1011.6
20190618111343 61 300 7.0 16.0 0.00 0.00 0.00 63 1011.5
20190618111142 61 300 6.0 16.0 0.00 0.00 0.00 63 1011.5
20190618110942 61 297 6.0 16.0 0.00 0.00 0.00 62 1011.4
20190618110742 62 293 5.0 16.0 0.00 0.00 0.00 60 1011.4
20190618110542 62 299 5.0 11.0 0.00 0.00 0.00 58 1011.5
20190618110342 62 300 4.0 11.0 0.00 0.00 0.00 58 1011.4
20190618110142 62 302 4.0 11.0 0.00 0.00 0.00 58 1011.5
20190618105943 63 311 5.0 11.0 0.00 0.00 0.00 57 1011.5
20190618105742 63 312 5.0 11.0 0.00 0.00 0.00 59 1011.5
20190618105542 63 300 5.0 9.0 0.00 0.00 0.00 56 1011.4
20190618105342 63 295 6.0 9.0 0.00 0.00 0.00 58 1011.6
20190618105142 62 296 6.0 9.0 0.00 0.00 0.00 59 1011.6
20190618104942 62 293 6.0 9.0 0.00 0.00 0.00 57 1011.5
20190618104742 62 296 5.0 9.0 0.00 0.00 0.00 57 1011.4
20190618104542 62 300 5.0 9.0 0.00 0.00 0.00 60 1011.5
20190618104342 61 299 4.0 9.0 0.00 0.00 0.00 58 1011.6
20190618104142 61 294 4.0 9.0 0.00 0.00 0.00 59 1011.6
20190618103942 61 291 4.0 9.0 0.00 0.00 0.00 57 1011.5
20190618103742 61 290 4.0 9.0 0.00 0.00 0.00 56 1011.6
20190618103543 61 288 4.0 9.0 0.00 0.00 0.00 61 1011.6
20190618103343 61 285 4.0 7.0 0.00 0.00 0.00 62 1011.7
20190618103143 61 275 4.0 8.0 0.00 0.00 0.00 61 1011.7
20190618102943 61 277 4.0 8.0 0.00 0.00 0.00 61 1011.6
20190618102742 61 274 4.0 8.0 0.00 0.00 0.00 62 1011.6
20190618102542 61 276 4.0 8.0 0.00 0.00 0.00 62 1011.6
20190618102343 61 276 4.0 8.0 0.00 0.00 0.00 63 1011.6
20190618102143 61 279 3.0 9.0 0.00 0.00 0.00 64 1011.6
20190618101943 61 272 4.0 9.0 0.00 0.00 0.00 62 1011.6
20190618101743 61 271 4.0 9.0 0.00 0.00 0.00 64 1011.7
20190618101543 61 266 4.0 9.0 0.00 0.00 0.00 64 1011.6
20190618101343 61 267 3.0 9.0 0.00 0.00 0.00 63 1011.6
20190618101143 61 261 3.0 9.0 0.00 0.00 0.00 62 1011.7
20190618100943 61 262 3.0 9.0 0.00 0.00 0.00 64 1011.7
20190618100743 61 255 3.0 9.0 0.00 0.00 0.00 64 1011.7
20190618100543 61 251 3.0 9.0 0.00 0.00 0.00 63 1011.6
20190618100344 61 255 4.0 9.0 0.00 0.00 0.00 67 1011.8
20190618100143 60 267 4.0 6.0 0.00 0.00 0.00 66 1011.8
20190618095943 60 272 5.0 7.0 0.00 0.00 0.00 65 1011.7
20190618095743 60 278 5.0 7.0 0.00 0.00 0.00 65 1011.7
20190618095543 60 285 5.0 9.0 0.00 0.00 0.00 65 1011.7
20190618095344 60 287 4.0 9.0 0.00 0.00 0.00 64 1011.7
20190618095143 60 282 4.0 9.0 0.00 0.00 0.00 66 1011.8
20190618094943 60 273 3.0 9.0 0.00 0.00 0.00 67 1011.8
20190618094744 60 267 4.0 9.0 0.00 0.00 0.00 66 1011.9
20190618094543 60 257 4.0 8.0 0.00 0.00 0.00 66 1011.8
20190618094343 60 245 4.0 6.0 0.00 0.00 0.00 67 1011.9
20190618094144 60 257 5.0 6.0 0.00 0.00 0.00 68 1012.0
20190618093944 60 272 5.0 8.0 0.00 0.00 0.00 66 1012.0
20190618093744 60 281 6.0 9.0 0.00 0.00 0.00 67 1011.9
20190618093543 59 284 6.0 9.0 0.00 0.00 0.00 69 1011.8
20190618093344 59 291 5.0 9.0 0.00 0.00 0.00 68 1011.9
20190618093143 59 294 5.0 9.0 0.00 0.00 0.00 68 1012.0
20190618092944 59 294 5.0 9.0 0.00 0.00 0.00 68 1012.0
20190618092743 59 291 5.0 9.0 0.00 0.00 0.00 69 1012.0
20190618092544 59 289 5.0 8.0 0.00 0.00 0.00 69 1012.0
20190618092344 59 284 5.0 8.0 0.00 0.00 0.00 70 1012.0
20190618092143 59 270 5.0 6.0 0.00 0.00 0.00 69 1012.1
20190618091943 59 268 5.0 6.0 0.00 0.00 0.00 70 1012.1
20190618091744 59 272 5.0 8.0 0.00 0.00 0.00 72 1012.2
20190618091544 59 278 5.0 8.0 0.00 0.00 0.00 72 1012.2
20190618091343 59 282 5.0 8.0 0.00 0.00 0.00 71 1012.2
20190618091143 59 299 5.0 8.0 0.00 0.00 0.00 71 1012.2
20190618090943 59 303 5.0 8.0 0.00 0.00 0.00 72 1012.3
20190618090744 59 305 5.0 8.0 0.00 0.00 0.00 72 1012.3
20190618090544 59 309 5.0 8.0 0.00 0.00 0.00 74 1012.3
20190618090343 59 312 5.0 9.0 0.00 0.00 0.00 72 1012.2
20190618090144 59 315 5.0 9.0 0.00 0.00 0.00 71 1012.3
20190618085951 59 316 4.0 9.0 0.00 0.00 0.00 72 1012.3
20190618085744 59 317 4.0 9.0 0.00 0.00 0.00 73 1012.3
20190618085543 59 309 4.0 9.0 0.00 0.00 0.00 72 1012.3
20190618085344 59 293 4.0 9.0 0.00 0.00 0.00 73 1012.2
20190618085144 59 267 5.0 7.0 0.00 0.00 0.00 74 1012.3
20190618084944 58 253 5.0 7.0 0.00 0.00 0.00 75 1012.3
20190618084744 57 263 5.0 7.0 0.00 0.00 0.00 76 1012.4
20190618084545 57 270 5.0 7.0 0.00 0.00 0.00 75 1012.3
20190618084344 57 271 5.0 8.0 0.00 0.00 0.00 74 1012.3
20190618084144 57 283 5.0 9.0 0.00 0.00 0.00 75 1012.3
20190618083943 57 286 5.0 9.0 0.00 0.00 0.00 76 1012.5
20190618083743 57 279 4.0 9.0 0.00 0.00 0.00 76 1012.5
20190618083545 57 273 4.0 9.0 0.00 0.00 0.00 76 1012.4
20190618083344 57 279 4.0 9.0 0.00 0.00 0.00 75 1012.4
20190618083144 57 282 4.0 8.0 0.00 0.00 0.00 75 1012.4
20190618082944 57 279 4.0 7.0 0.00 0.00 0.00 76 1012.4
20190618082744 57 276 4.0 7.0 0.00 0.00 0.00 77 1012.5
20190618082544 57 269 4.0 8.0 0.00 0.00 0.00 78 1012.5
20190618082344 57 270 4.0 8.0 0.00 0.00 0.00 78 1012.4
20190618082144 56 268 3.0 8.0 0.00 0.00 0.00 77 1012.4
20190618081945 56 271 3.0 8.0 0.00 0.00 0.00 77 1012.3
20190618081744 56 272 3.0 8.0 0.00 0.00 0.00 77 1012.4
20190618081544 56 275 3.0 8.0 0.00 0.00 0.00 78 1012.5
20190618081344 56 273 3.0 8.0 0.00 0.00 0.00 78 1012.5
20190618081144 56 270 4.0 7.0 0.00 0.00 0.00 78 1012.5
20190618080944 56 267 4.0 8.0 0.00 0.00 0.00 79 1012.5
20190618080744 56 262 4.0 8.0 0.00 0.00 0.00 79 1012.6
20190618080544 56 267 4.0 8.0 0.00 0.00 0.00 79 1012.6
20190618080344 56 263 3.0 8.0 0.00 0.00 0.00 78 1012.6
20190618080144 56 265 3.0 8.0 0.00 0.00 0.00 78 1012.6
20190618075944 56 273 3.0 8.0 0.00 0.00 0.00 78 1012.5
20190618075745 56 283 3.0 7.0 0.00 0.00 0.00 78 1012.5
20190618075544 57 294 3.0 7.0 0.00 0.00 0.00 79 1012.5
20190618075345 56 285 3.0 7.0 0.00 0.00 0.00 78 1012.5
20190618075144 57 288 3.0 7.0 0.00 0.00 0.00 79 1012.5
20190618074944 57 290 3.0 7.0 0.00 0.00 0.00 80 1012.5
20190618074744 56 296 3.0 6.0 0.00 0.00 0.00 78 1012.5
20190618074544 56 293 3.0 6.0 0.00 0.00 0.00 78 1012.5
20190618074345 56 298 2.0 6.0 0.00 0.00 0.00 78 1012.5
20190618074144 57 289 2.0 6.0 0.00 0.00 0.00 78 1012.5
20190618073945 57 287 2.0 6.0 0.00 0.00 0.00 77 1012.5
20190618073744 57 262 2.0 5.0 0.00 0.00 0.00 77 1012.6
20190618073544 57 208 3.0 5.0 0.00 0.00 0.00 78 1012.5
20190618073345 57 182 3.0 5.0 0.00 0.00 0.00 79 1012.5
20190618073144 58 163 3.0 5.0 0.00 0.00 0.00 82 1012.5
20190618072945 57 166 3.0 5.0 0.00 0.00 0.00 81 1012.5
20190618072745 57 160 3.0 5.0 0.00 0.00 0.00 80 1012.6
20190618072545 58 144 3.0 5.0 0.00 0.00 0.00 80 1012.6
20190618072344 58 132 3.0 5.0 0.00 0.00 0.00 80 1012.6
20190618072145 58 124 3.0 5.0 0.00 0.00 0.00 81 1012.6
20190618071945 58 118 3.0 5.0 0.00 0.00 0.00 82 1012.6
20190618071745 57 114 4.0 5.0 0.00 0.00 0.00 82 1012.7
20190618071545 57 120 4.0 5.0 0.00 0.00 0.00 82 1012.6
20190618071345 57 118 5.0 7.0 0.00 0.00 0.00 81 1012.6
20190618071145 57 124 5.0 7.0 0.00 0.00 0.00 81 1012.6
20190618070945 57 124 4.0 7.0 0.00 0.00 0.00 82 1012.5
20190618070744 57 121 4.0 7.0 0.00 0.00 0.00 83 1012.5
20190618070545 57 116 3.0 7.0 0.00 0.00 0.00 83 1012.6
20190618070345 57 113 2.0 6.0 0.00 0.00 0.00 84 1012.5
20190618070145 56 110 2.0 6.0 0.00 0.00 0.00 85 1012.6
20190618065945 56 102 2.0 6.0 0.00 0.00 0.00 85 1012.6
20190618065745 56 101 2.0 6.0 0.00 0.00 0.00 85 1012.6
20190618065545 56 132 2.0 5.0 0.00 0.00 0.00 84 1012.5
20190618065344 55 165 3.0 4.0 0.00 0.00 0.00 84 1012.5
20190618065145 55 160 3.0 4.0 0.00 0.00 0.00 85 1012.5
20190618064945 55 156 4.0 5.0 0.00 0.00 0.00 85 1012.5
20190618064745 55 150 4.0 6.0 0.00 0.00 0.00 86 1012.5